Flag for Russia Weather past 2 weeks in Kaliningrad, Russia

Now
72 °F

Broken clouds.


Feels Like: 77 °F
Forecast: 44 / 57 °F
Wind: 13 mph from South

Location: Kaliningrad/Khrabrovo Airport

Current Time: Apr 27, 2015 at 3:06:13 PM

Latest Report: Apr 27, 2015 at 2:30 PM


Visibility: N/A

Pressure: 29.65 "Hg

Humidity: 44%

Dew point: 48 °F

Location of KaliningradLocation

Historic Weather in Kaliningrad — Graph

°F

Kaliningrad temperature yesterday

Maximum temperature yesterday: 57 °F (at 5:30 AM)
Minimum temperature yesterday: 45 °F (at 10:30 PM)
Average temperature yesterday: 53 °F

Past Weeks' High & Low Weather Summary

 TemperatureHumidityPressure
High72 °F (Apr 25, 2:30 PM)100% (Apr 14, 10:00 PM)30.24 "Hg (Apr 14, 10:00 PM)
Low30 °F (Apr 22, 4:00 AM)27% (Apr 25, 3:00 PM)29.50 "Hg (Apr 16, 12:00 AM)
Average46 °F74%29.91 "Hg
* Reported Apr 12 2:00 PM — Apr 27 2:00 PM, Kaliningrad, Weather by CustomWeather, © 2015

Note: Actual official high and low records may vary slightly from our data, if they occured in-between our weather recording intervals... More about our weather records

Advertising

Kaliningrad weather history for previous 24 hours

 ConditionsComfort  
Time TempWeatherWind HumidityBarometerVisibility
2:00 PM
Mon, Apr 27
72 °FBroken clouds.10 mph44%29.65 "HgN/A
1:30 PM72 °FBroken clouds.10 mph44%29.65 "HgN/A
1:00 PM72 °FBroken clouds.10 mph41%29.65 "HgN/A
12:30 PM68 °FMore clouds than sun.8 mph53%29.68 "HgN/A
12:00 PM68 °FBroken clouds.8 mph53%29.68 "HgN/A
11:30 AM68 °FBroken clouds.10 mph56%29.68 "HgN/A
11:00 AM66 °FSunny.10 mph60%29.68 "Hg10 mi
10:30 AM64 °FPassing clouds.13 mph64%29.68 "HgN/A
10:00 AM64 °FSunny.13 mph68%29.68 "Hg10 mi
9:30 AM63 °FPassing clouds.13 mph73%29.68 "HgN/A
9:00 AM59 °FSunny.10 mph82%29.68 "Hg10 mi
8:30 AM57 °FSunny.10 mph88%29.68 "Hg10 mi
8:00 AM54 °FSunny.8 mph94%29.68 "Hg10 mi
7:30 AM52 °FOvercast.8 mph94%29.68 "Hg5 mi
7:00 AM52 °FOvercast.8 mph94%29.71 "Hg5 mi
6:30 AM52 °FOvercast.6 mph94%29.71 "Hg5 mi
6:00 AM50 °FPassing clouds.3 mph94%29.71 "Hg5 mi
5:30 AM46 °FClear.6 mph100%29.71 "Hg5 mi
5:00 AM45 °FClear.6 mph100%29.71 "Hg4 mi
4:30 AM45 °FClear.3 mph100%29.71 "Hg5 mi
4:00 AM46 °FClear.6 mph93%29.71 "Hg5 mi
3:00 AM46 °FClear.3 mph93%29.71 "Hg10 mi
2:00 AM46 °FPartly cloudy.3 mph93%29.74 "HgN/A
1:00 AM48 °FMostly cloudy.1 mph94%29.74 "HgN/A
12:30 AM48 °FMostly cloudy.1 mph94%29.74 "Hg4 mi
12:00 AM48 °FMostly cloudy.No wind94%29.74 "Hg4 mi
11:30 PM
Sun, Apr 26
46 °FClear.No wind100%29.74 "Hg4 mi
11:00 PM46 °FFog.6 mph93%29.74 "Hg2 mi
10:30 PM45 °FFog.1 mph93%29.74 "Hg1 mi
10:00 PM46 °FFog.3 mph93%29.74 "Hg3 mi
9:30 PM48 °FBroken clouds.1 mph87%29.74 "Hg4 mi
9:00 PM50 °FClear.3 mph88%29.74 "Hg4 mi
8:30 PM50 °FClear.1 mph88%29.74 "Hg4 mi
8:00 PM50 °FSunny.1 mph94%29.74 "Hg10 mi
7:30 PM52 °FSunny.1 mph88%29.74 "Hg10 mi
7:00 PM54 °FSunny.3 mph77%29.74 "Hg10 mi
6:30 PM54 °FSunny.3 mph77%29.74 "Hg10 mi
6:00 PM55 °FPassing clouds.3 mph72%29.74 "HgN/A
5:30 PM57 °FPassing clouds.3 mph67%29.74 "HgN/A
5:00 PM57 °FOvercast.3 mph67%29.74 "HgN/A
4:30 PM55 °FOvercast.6 mph72%29.74 "HgN/A
4:00 PM55 °FMore clouds than sun.8 mph77%29.74 "HgN/A
3:30 PM55 °FMostly cloudy.8 mph77%29.74 "HgN/A
3:00 PM55 °FOvercast.6 mph77%29.74 "HgN/A
Weather by CustomWeather, © 2015

See weather overviewHow to use our weather pages